Athens, OH

8:55 PM EDT on July 25, 2017 (GMT -0400)
Ohio University

Weather History for KUNI - December, 2013

Change the Weather History Date:

Monday, December 23, 2013

  Actual Average (KPKB) Record (KPKB)
Temperature  
Mean Temperature 40 °F -  
Max Temperature 50 °F 43 °F 68 °F (2015)
Min Temperature 29 °F 25 °F -16 °F (1989)
Degree Days  
Heating Degree Days 26    
Moisture  
Dew Point 30 °F    
Average Humidity 80    
Maximum Humidity 96    
Minimum Humidity 67    
Precipitation  
Precipitation 0.00 in - - ()
Sea Level Pressure  
Sea Level Pressure 30.22 in    
Wind  
Wind Speed 6 mph (WNW)    
Max Wind Speed 13 mph    
Max Gust Speed 21 mph    
Visibility 9 miles    
Events Rain    
Averages and records for this station are not official NWS values.
T = Trace of Precipitation, MM = Missing Value Source: NWS Daily Summary

Daily Weather History Graph

Daily Weather History Graph

Search for Another Location

Airport or City:

Trip Planner

Search our weather history database for the weather conditions in past years. The results will help you decide how hot, cold, wet, or windy it might be!

Date:

Astronomy

Dec. 23, 2013 Rise Set
Actual Time 7:45 AM EST 5:10 PM EST
Civil Twilight 7:15 AM EST 5:40 PM EST
Nautical Twilight 6:42 AM EST 6:14 PM EST
Astronomical Twilight 6:09 AM EST 6:46 PM EST
Moon 11:16 PM EST (12/23) 11:12 AM EST (12/23)
Length of Visible Light 10h 24m
Length of Day
9h 24m
Waning Gibbous, 68% of the Moon is Illuminated
Dec 23
Waning Gibbous
Dec 25
Last Quarter
Jan 1
New
Jan 7
First Quarter
Jan 15
Full

Hourly Weather History & Observations

Time (EST) Temp. Windchill Dew Point Humidity Pressure Visibility Wind Dir Wind Speed Gust Speed Precip Events Conditions
12:15 AM 50.5 °F - 46.0 °F 85% 29.99 in 10.0 mi SSW 3.5 mph - N/A   Overcast
12:35 AM 49.6 °F - 46.4 °F 89% 29.99 in 5.0 mi WSW 4.6 mph - N/A   Light Drizzle
12:55 AM 49.1 °F - 46.9 °F 92% 29.99 in 7.0 mi WSW 4.6 mph - N/A   Overcast
1:15 AM 48.7 °F - 46.9 °F 93% 30.00 in 3.0 mi WSW 4.6 mph - N/A   Drizzle
1:35 AM 48.2 °F - 46.6 °F 94% 30.00 in 4.0 mi West 6.9 mph - N/A   Light Drizzle
1:55 AM 48.2 °F - 46.6 °F 94% 30.01 in 3.0 mi West 3.5 mph - N/A   Drizzle
2:15 AM 47.5 °F - 46.4 °F 96% 30.00 in 3.0 mi West 5.8 mph - N/A   Drizzle
2:35 AM 46.0 °F 40.2 °F 44.4 °F 94% 30.02 in 4.0 mi WNW 12.7 mph 16.1 mph N/A   Drizzle
2:55 AM 43.2 °F 38.4 °F 41.0 °F 92% 30.04 in 5.0 mi WNW 8.1 mph 16.1 mph N/A   Light Drizzle
3:15 AM 42.4 °F 37.0 °F 40.1 °F 91% 30.04 in 5.0 mi WNW 9.2 mph - N/A   Drizzle
3:35 AM 42.1 °F 37.7 °F 39.7 °F 91% 30.05 in 5.0 mi WNW 6.9 mph - N/A   Light Drizzle
3:55 AM 41.4 °F 35.2 °F 39.2 °F 92% 30.06 in 5.0 mi NW 10.4 mph - N/A   Light Drizzle
4:15 AM 40.6 °F 36.0 °F 38.3 °F 91% 30.06 in 7.0 mi WNW 6.9 mph - N/A   Light Drizzle
4:35 AM 40.3 °F 36.3 °F 37.9 °F 91% 30.06 in 10.0 mi NW 5.8 mph - N/A   Overcast
4:55 AM 40.1 °F 34.7 °F 37.4 °F 90% 30.07 in 10.0 mi WNW 8.1 mph - N/A   Overcast
5:15 AM 39.7 °F 33.7 °F 36.5 °F 88% 30.07 in 10.0 mi WNW 9.2 mph - N/A   Drizzle
5:35 AM 39.2 °F 33.6 °F 36.0 °F 88% 30.08 in 10.0 mi NW 8.1 mph - N/A Rain Light Rain
5:55 AM 38.7 °F 32.4 °F 35.6 °F 89% 30.09 in 10.0 mi WNW 9.2 mph - N/A   Light Drizzle
6:15 AM 38.1 °F 33.7 °F 34.7 °F 87% 30.10 in 10.0 mi WNW 5.8 mph - N/A   Drizzle
6:35 AM 37.8 °F 34.2 °F 34.7 °F 89% 30.11 in 10.0 mi WNW 4.6 mph - N/A   Light Drizzle
6:55 AM 37.4 °F 32.1 °F 34.5 °F 89% 30.12 in 10.0 mi West 6.9 mph - N/A   Overcast
7:15 AM 37.4 °F 32.1 °F 34.0 °F 87% 30.14 in 10.0 mi West 6.9 mph - N/A Rain Light Rain
7:35 AM 37.0 °F 30.4 °F 33.4 °F 87% 30.15 in 10.0 mi WNW 9.2 mph - N/A Rain Light Rain
7:55 AM 36.3 °F 30.8 °F 32.9 °F 87% 30.17 in 10.0 mi WNW 6.9 mph - N/A Rain Light Rain
8:15 AM 36.0 °F 27.5 °F 32.2 °F 86% 30.19 in 10.0 mi WNW 12.7 mph 17.3 mph N/A   Overcast
8:35 AM 35.6 °F 29.2 °F 32.0 °F 87% 30.20 in 10.0 mi WNW 8.1 mph 17.3 mph N/A   Overcast
8:55 AM 35.6 °F 29.9 °F 31.8 °F 86% 30.21 in 10.0 mi WNW 6.9 mph - N/A   Overcast
9:15 AM 35.1 °F 26.4 °F 30.9 °F 85% 30.23 in 10.0 mi WNW 12.7 mph 19.6 mph N/A   Overcast
9:35 AM 34.2 °F 25.2 °F 29.7 °F 84% 30.25 in 10.0 mi WNW 12.7 mph 20.7 mph N/A   Overcast
9:55 AM 33.8 °F 26.4 °F 29.8 °F 85% 30.26 in 10.0 mi WNW 9.2 mph - N/A   Overcast
10:15 AM 33.8 °F 25.8 °F 28.9 °F 82% 30.27 in 10.0 mi WNW 10.4 mph - N/A   Overcast
10:35 AM 33.8 °F 25.8 °F 27.1 °F 77% 30.29 in 10.0 mi West 10.4 mph 16.1 mph N/A   Overcast
10:55 AM 33.8 °F 25.3 °F 27.1 °F 77% 30.30 in 10.0 mi West 11.5 mph 18.4 mph N/A   Overcast
11:15 AM 33.8 °F 26.4 °F 25.9 °F 73% 30.30 in 10.0 mi WNW 9.2 mph - N/A   Overcast
11:35 AM 33.3 °F 26.4 °F 26.1 °F 75% 30.31 in 10.0 mi WNW 8.1 mph - N/A   Overcast
11:55 AM 33.4 °F 24.8 °F 26.4 °F 75% 30.30 in 10.0 mi West 11.5 mph - N/A   Overcast
12:15 PM 33.8 °F 25.8 °F 26.2 °F 74% 30.30 in 10.0 mi WNW 10.4 mph - N/A   Overcast
12:35 PM 33.4 °F 25.9 °F 26.2 °F 75% 30.30 in 10.0 mi West 9.2 mph - N/A   Overcast
12:55 PM 33.3 °F 25.7 °F 26.1 °F 75% 30.30 in 10.0 mi West 9.2 mph - N/A   Overcast
1:15 PM 33.8 °F 26.4 °F 26.6 °F 75% 30.30 in 10.0 mi WNW 9.2 mph - N/A   Overcast
1:35 PM 33.8 °F 28.6 °F 25.5 °F 72% 30.30 in 10.0 mi NW 5.8 mph - N/A   Overcast
1:55 PM 33.8 °F 28.6 °F 25.7 °F 72% 30.30 in 10.0 mi WNW 5.8 mph - N/A   Overcast
2:15 PM 33.8 °F 25.8 °F 25.7 °F 72% 30.31 in 10.0 mi West 10.4 mph - N/A   Overcast
2:35 PM 34.0 °F 27.2 °F 25.5 °F 71% 30.30 in 10.0 mi WNW 8.1 mph - N/A   Overcast
2:55 PM 33.8 °F 27.7 °F 24.8 °F 70% 30.30 in 10.0 mi NW 6.9 mph - N/A   Overcast
3:15 PM 33.8 °F 28.6 °F 23.9 °F 67% 30.31 in 10.0 mi WNW 5.8 mph - N/A   Overcast
3:35 PM 33.8 °F 29.6 °F 24.4 °F 69% 30.31 in 10.0 mi WNW 4.6 mph - N/A   Overcast
3:55 PM 33.8 °F 30.8 °F 24.3 °F 68% 30.31 in 10.0 mi WNW 3.5 mph - N/A   Overcast
4:15 PM 33.8 °F 30.8 °F 23.7 °F 67% 30.32 in 10.0 mi West 3.5 mph - N/A   Overcast
4:35 PM 34.0 °F 31.0 °F 24.6 °F 69% 30.32 in 10.0 mi West 3.5 mph - N/A   Overcast
4:55 PM 33.8 °F 30.8 °F 25.2 °F 71% 30.32 in 10.0 mi West 3.5 mph - N/A   Overcast
5:15 PM 33.4 °F 29.1 °F 23.7 °F 68% 30.32 in 10.0 mi West 4.6 mph - N/A   Overcast
5:35 PM 33.3 °F 27.1 °F 23.4 °F 67% 30.33 in 10.0 mi West 6.9 mph - N/A   Overcast
5:55 PM 32.9 °F 28.5 °F 23.9 °F 69% 30.33 in 10.0 mi NW 4.6 mph - N/A   Overcast
6:15 PM 32.4 °F 29.1 °F 24.3 °F 72% 30.33 in 10.0 mi WNW 3.5 mph - N/A   Overcast
6:35 PM 32.0 °F 28.7 °F 23.0 °F 69% 30.33 in 10.0 mi NW 3.5 mph - N/A   Overcast
6:55 PM 31.8 °F - 22.8 °F 69% 30.34 in 10.0 mi Calm Calm - N/A   Mostly Cloudy
7:15 PM 31.6 °F - 22.8 °F 70% 30.34 in 10.0 mi Calm Calm - N/A   Scattered Clouds
7:35 PM 31.1 °F - 22.6 °F 71% 30.34 in 10.0 mi Calm Calm - N/A   Mostly Cloudy
7:55 PM 31.1 °F - 23.4 °F 73% 30.33 in 10.0 mi Calm Calm - N/A   Overcast
8:15 PM 30.9 °F - 23.9 °F 75% 30.33 in 10.0 mi Calm Calm - N/A   Overcast
8:35 PM 30.9 °F - 24.4 °F 77% 30.33 in 10.0 mi Calm Calm - N/A   Overcast
8:55 PM 30.6 °F - 24.3 °F 77% 30.32 in 10.0 mi Calm Calm - N/A   Overcast
9:15 PM 30.0 °F - 24.1 °F 79% 30.33 in 10.0 mi Calm Calm - N/A   Mostly Cloudy
9:35 PM 29.7 °F - 24.4 °F 81% 30.33 in 10.0 mi Calm Calm - N/A   Mostly Cloudy
9:55 PM 29.8 °F - 24.8 °F 81% 30.33 in 10.0 mi Calm Calm - N/A   Overcast
10:15 PM 30.2 °F - 23.7 °F 77% 30.33 in 10.0 mi Calm Calm - N/A   Overcast
10:35 PM 30.9 °F - 22.8 °F 72% 30.33 in 10.0 mi Calm Calm - N/A   Overcast
10:55 PM 30.9 °F 27.5 °F 23.4 °F 74% 30.33 in 10.0 mi WNW 3.5 mph - N/A   Overcast
11:15 PM 30.9 °F 27.5 °F 23.0 °F 72% 30.33 in 10.0 mi WNW 3.5 mph - N/A   Overcast
11:35 PM 30.9 °F 24.3 °F 23.0 °F 72% 30.33 in 10.0 mi West 6.9 mph - N/A   Overcast
11:55 PM 30.7 °F 23.3 °F 21.2 °F 68% 30.33 in 10.0 mi West 8.1 mph - N/A   Overcast